Regional Weather Roundup
Issued by NWS

Home | Current Version | Previous Version | Graphics & Text | Print | Product List | Glossary On
Versions: 1 2 3 4 5 6 7 8 9 10 11 12 13 14 15 16 17 18 19 20 21 22 23 24 25 26 27 28 29 30 31 32 33 34 35 36 37 38 39 40 41 42 43 44 45 46 47 48 49 50
000
ASUS43 KFSD 241910
RWRSD

WEATHER ROUNDUP FOR SOUTH DAKOTA
NATIONAL WEATHER SERVICE SIOUX FALLS SD
100 PM CST MON NOV 24 2014

NOTE: "FAIR" INDICATES FEW OR NO CLOUDS BELOW 12,000 FEET WITH NO
SIGNIFICANT WEATHER AND/OR OBSTRUCTIONS TO VISIBILITY.


SDZ001>005-009-010-012>017-242000-
NORTHWEST AND NORTH CENTRAL SOUTH DAKOTA

CITY           SKY/WX    TMP DP  RH WIND       PRES   REMARKS
BUFFALO          N/A     32  20  61 NW18      29.86R WCI  20
FAITH            N/A     29  15  56 NW15      29.90S WCI  18
MOBRIDGE       SUNNY     26   8  46 NW15G24   29.88R WCI  14
$$

SDZ012>016-024>037-041>051-057-063-072>074-242000-
SOUTHWEST AND SOUTH CENTRAL SOUTH DAKOTA

CITY           SKY/WX    TMP DP  RH WIND       PRES   REMARKS
RAPID CTY ARPT HVY SNOW  28  25  88 NW6       29.91R VSB 1/4 WCI  22
PIERRE         SUNNY     28   9  44 NW20      29.90R WCI  15
CUSTER         CLOUDY    32  21  64 NW14G21   29.83R WCI  22
ELLSWORTH AFB  SNOW      29  27  92 N8        29.90  VSB 3/8 WCI  21
PHILIP         SUNNY    N/A N/A N/A NW12      29.93S
PINE RIDGE     LGT SNOW  32  26  78 N7        29.91R WCI  26
SPEARFISH      LGT RAIN  32  27  80 NW21G29   29.92R WCI  20
WINNER         FAIR      31   7  36 NW21G31   29.88R WCI  18
$$

SDZ004>011-016>023-039-040-242000-
NORTHEAST SOUTH DAKOTA

CITY           SKY/WX    TMP DP  RH WIND       PRES   REMARKS
ABERDEEN       SUNNY     25  13  60 N25G32    29.82S WCI   9
WATERTOWN      LGT SNOW  16   9  74 NW24      29.71R WCI  -2
SISSETON         N/A     17   9  70 N28G38    29.73R WCI  -2
$$

SDZ017-020-022-023-036>040-048>070-242000-
SOUTHEAST SOUTH DAKOTA

CITY           SKY/WX    TMP DP  RH WIND       PRES   REMARKS
SIOUX FALLS    PTSUNNY   22  12  65 NW29G35   29.72R WCI   4
HURON          SUNNY     24  12  60 NW28G36   29.81R WCI   7
CHAMBERLAIN    SUNNY     27  11  49 NW22G29   29.87R WCI  13
MITCHELL       SUNNY     28  13  53 NW28G35   29.82R WCI  13
YANKTON        SUNNY    N/A N/A N/A NW29G39   29.77S
$$

ABBREVIATIONS USED IN REMARKS
   TC - TEMPERATURE IN CELSIUS
  WCI - WIND CHILL INDEX
   HX - HEAT INDEX
  VSB - VISIBILITY



USA.gov is the U.S. government's official web portal to all federal, state and local government web resources and services.